Location: LewisvilleTX
(33.0462°N, 96.9942°W)
Time: 14:21:27
(UTC+00:00)

MANDRAKE 2 BAKER - Pass Details

Date: 03 June 2022
Orbit: 516 x 532 km, 97.6° (Epoch: 30 June)

Event Time Altitude Azimuth Distance (km) Brightness Sun altitude
Exits shadow 08:43:28 19° 322° (NW) 1,304 ? -25.7°
Drops below altitude 10° 08:44:43 10° 332° (NNW) 1,772 ? -25.5°
Sets 08:46:56 0° 340° (NNW) 2,662 ? -25.2°
